HUF6U LHBP-UKBB

Flight info

Callsign HUF6U
Flight time 1h 23m
Altitude 39000
Route VETIK DCT PERIT DCT GEMTO/K0819F390 P26 TAKON M986 SLV
Aircraft A319/M-SDE3FGHIRWY/LB1

Departure

Time 2026-05-07 20:10
Airport Budapest Liszt Ferenc International Airport (LHBP)

Arrival

Time 2026-05-07 21:33
Airport Boryspil International Airport (UKBB)
Time Latitude Longitude Altitude Speed Heading
2026-05-07 19:43 47.43352 19.26707 458 ft 0 kts 222°
2026-05-07 19:52 47.43352 19.26708 458 ft 0 kts 222°
2026-05-07 20:03 47.43352 19.26707 458 ft 0 kts 222°
2026-05-07 20:03 47.43349 19.26703 458 ft 1 kts 222°
2026-05-07 20:03 47.43337 19.26687 456 ft 3 kts 222°
2026-05-07 20:03 47.43310 19.26675 457 ft 5 kts 158°
2026-05-07 20:04 47.43269 19.26724 457 ft 9 kts 133°
2026-05-07 20:04 47.43249 19.26814 458 ft 10 kts 76°
2026-05-07 20:04 47.43290 19.26900 458 ft 11 kts 22°
2026-05-07 20:04 47.43355 19.26852 458 ft 12 kts 313°
2026-05-07 20:05 47.43413 19.26760 458 ft 13 kts 312°
2026-05-07 20:05 47.43477 19.26654 458 ft 14 kts 312°
2026-05-07 20:05 47.43547 19.26542 458 ft 16 kts 312°
2026-05-07 20:05 47.43626 19.26415 458 ft 17 kts 313°
2026-05-07 20:06 47.43679 19.26259 457 ft 18 kts 269°
2026-05-07 20:06 47.43684 19.26067 457 ft 19 kts 292°
2026-05-07 20:06 47.43730 19.25916 457 ft 15 kts 250°
2026-05-07 20:06 47.43660 19.25811 457 ft 14 kts 222°
2026-05-07 20:07 47.43592 19.25720 457 ft 13 kts 221°
2026-05-07 20:07 47.43528 19.25633 456 ft 13 kts 223°
2026-05-07 20:07 47.43456 19.25536 457 ft 15 kts 222°
2026-05-07 20:07 47.43371 19.25424 457 ft 18 kts 221°
2026-05-07 20:08 47.43273 19.25292 457 ft 21 kts 222°
2026-05-07 20:08 47.43175 19.25160 457 ft 16 kts 223°
2026-05-07 20:08 47.43098 19.25055 455 ft 15 kts 223°
2026-05-07 20:08 47.43099 19.24941 457 ft 12 kts 313°
2026-05-07 20:09 47.43175 19.24821 456 ft 33 kts 312°
2026-05-07 20:09 47.43523 19.24256 452 ft 111 kts 313°
2026-05-07 20:09 47.44184 19.23195 514 ft 163 kts 313°
2026-05-07 20:10 47.45706 19.20740 1995 ft 160 kts 310°
2026-05-07 20:10 47.46482 19.19480 2531 ft 175 kts 310°
2026-05-07 20:10 47.47340 19.18079 2994 ft 194 kts 310°
2026-05-07 20:10 47.48330 19.16522 3411 ft 221 kts 314°
2026-05-07 20:11 47.49549 19.14932 3934 ft 246 kts 318°
2026-05-07 20:11 47.50924 19.13274 4679 ft 261 kts 319°
2026-05-07 20:11 47.52359 19.11577 5680 ft 266 kts 319°
2026-05-07 20:11 47.53809 19.09858 6701 ft 269 kts 319°
2026-05-07 20:12 47.55294 19.08134 7650 ft 275 kts 324°
2026-05-07 20:12 47.57096 19.07083 8545 ft 286 kts 349°
2026-05-07 20:12 47.59098 19.07299 9469 ft 296 kts 17°
2026-05-07 20:12 47.60871 19.08895 10329 ft 305 kts 46°
2026-05-07 20:13 47.61985 19.11592 11008 ft 317 kts 73°
2026-05-07 20:13 47.62136 19.14933 11333 ft 337 kts 103°
2026-05-07 20:13 47.61478 19.18349 11793 ft 352 kts 111°
2026-05-07 20:13 47.60635 19.21793 12537 ft 358 kts 114°
2026-05-07 20:14 47.59722 19.25260 13321 ft 364 kts 115°
2026-05-07 20:14 47.58787 19.28775 14071 ft 369 kts 115°
2026-05-07 20:14 47.57860 19.32345 14798 ft 373 kts 114°
2026-05-07 20:14 47.56950 19.35959 15554 ft 376 kts 114°
2026-05-07 20:15 47.56055 19.39607 16321 ft 378 kts 114°
2026-05-07 20:15 47.55162 19.43287 17078 ft 381 kts 113°
2026-05-07 20:15 47.54268 19.46986 17834 ft 383 kts 114°
2026-05-07 20:15 47.53364 19.50708 18548 ft 386 kts 114°
2026-05-07 20:16 47.52448 19.54461 19178 ft 389 kts 114°
2026-05-07 20:16 47.51521 19.58237 19800 ft 392 kts 114°
2026-05-07 20:16 47.50585 19.62039 20430 ft 395 kts 114°
2026-05-07 20:16 47.49636 19.65874 21038 ft 398 kts 114°
2026-05-07 20:17 47.48677 19.69737 21644 ft 402 kts 114°
2026-05-07 20:17 47.47711 19.73621 22238 ft 405 kts 114°
2026-05-07 20:17 47.46736 19.77544 22815 ft 408 kts 114°
2026-05-07 20:17 47.45756 19.81495 23382 ft 411 kts 114°
2026-05-07 20:18 47.44764 19.85480 23880 ft 414 kts 114°
2026-05-07 20:18 47.43764 19.89491 24327 ft 418 kts 114°
2026-05-07 20:18 47.42754 19.93533 24771 ft 421 kts 115°
2026-05-07 20:18 47.41737 19.97596 25198 ft 424 kts 115°
2026-05-07 20:19 47.40712 20.01690 25624 ft 427 kts 115°
2026-05-07 20:19 47.39675 20.05812 26048 ft 430 kts 115°
2026-05-07 20:19 47.38627 20.09961 26472 ft 433 kts 115°
2026-05-07 20:19 47.37601 20.14155 26894 ft 438 kts 111°
2026-05-07 20:20 47.36949 20.18576 27306 ft 446 kts 101°
2026-05-07 20:20 47.36819 20.23194 27719 ft 455 kts 91°
2026-05-07 20:20 47.37237 20.27795 28117 ft 463 kts 80°
2026-05-07 20:20 47.38224 20.32349 28511 ft 470 kts 69°
2026-05-07 20:21 47.39624 20.36739 28893 ft 474 kts 67°
2026-05-07 20:21 47.41043 20.41141 29273 ft 477 kts 67°
2026-05-07 20:21 47.42462 20.45586 29643 ft 480 kts 67°
2026-05-07 20:21 47.43885 20.50063 30002 ft 483 kts 68°
2026-05-07 20:22 47.45314 20.54568 30312 ft 486 kts 68°
2026-05-07 20:22 47.46749 20.59100 30606 ft 488 kts 67°
2026-05-07 20:22 47.48195 20.63661 30893 ft 491 kts 67°
2026-05-07 20:22 47.49646 20.68240 31193 ft 493 kts 67°
2026-05-07 20:23 47.51099 20.72830 31608 ft 492 kts 67°
2026-05-07 20:23 47.52544 20.77411 32029 ft 491 kts 67°
2026-05-07 20:23 47.53518 20.80507 32315 ft 491 kts 67°
2026-05-07 20:23 47.55426 20.86574 32873 ft 490 kts 67°
2026-05-07 20:24 47.56380 20.89613 33156 ft 490 kts 67°
2026-05-07 20:24 47.57813 20.94180 33588 ft 489 kts 67°
2026-05-07 20:24 47.58781 20.97270 33880 ft 489 kts 67°
2026-05-07 20:24 47.59789 21.00496 34163 ft 488 kts 67°
2026-05-07 20:25 47.61214 21.05068 34537 ft 488 kts 67°
2026-05-07 20:25 47.62634 21.09628 34907 ft 487 kts 67°
2026-05-07 20:25 47.64051 21.14191 35261 ft 487 kts 67°
2026-05-07 20:25 47.65467 21.18749 35597 ft 486 kts 67°
2026-05-07 20:26 47.66881 21.23302 35926 ft 486 kts 67°
2026-05-07 20:26 47.68291 21.27858 36242 ft 486 kts 67°
2026-05-07 20:26 47.69701 21.32425 36557 ft 486 kts 67°
2026-05-07 20:26 47.71106 21.36987 36857 ft 486 kts 67°
2026-05-07 20:27 47.72507 21.41546 37151 ft 485 kts 67°
2026-05-07 20:27 47.73907 21.46111 37443 ft 485 kts 67°
2026-05-07 20:27 47.75299 21.50682 37726 ft 485 kts 67°
2026-05-07 20:27 47.76689 21.55249 38001 ft 485 kts 67°
2026-05-07 20:28 47.78084 21.59824 38281 ft 485 kts 66°
2026-05-07 20:28 47.79504 21.64379 38548 ft 486 kts 65°
2026-05-07 20:28 47.81026 21.68877 38779 ft 486 kts 63°
2026-05-07 20:28 47.82627 21.73301 38957 ft 487 kts 62°
2026-05-07 20:29 47.84275 21.77707 39017 ft 487 kts 61°
2026-05-07 20:29 47.87568 21.86501 39028 ft 486 kts 62°
2026-05-07 20:30 47.90776 21.95359 39026 ft 486 kts 63°
2026-05-07 20:30 47.93921 22.04269 39026 ft 486 kts 63°
2026-05-07 20:31 47.97066 22.13189 39023 ft 486 kts 63°
2026-05-07 20:31 48.00225 22.22097 39023 ft 486 kts 63°
2026-05-07 20:32 48.03390 22.31022 39028 ft 486 kts 63°
2026-05-07 20:32 48.06521 22.39925 39041 ft 486 kts 63°
2026-05-07 20:33 48.09653 22.48895 39044 ft 487 kts 63°
2026-05-07 20:33 48.12906 22.57778 39050 ft 487 kts 56°
2026-05-07 20:34 48.17377 22.65343 39042 ft 485 kts 43°
2026-05-07 20:34 48.22223 22.72379 39044 ft 485 kts 43°
2026-05-07 20:35 48.27047 22.79453 39048 ft 485 kts 43°
2026-05-07 20:35 48.31867 22.86544 39050 ft 485 kts 43°
2026-05-07 20:36 48.36682 22.93634 39059 ft 485 kts 43°
2026-05-07 20:36 48.41491 23.00741 39053 ft 484 kts 44°
2026-05-07 20:37 48.46291 23.07857 39053 ft 484 kts 44°
2026-05-07 20:37 48.51036 23.14971 39054 ft 484 kts 48°
2026-05-07 20:38 48.54746 23.23395 39046 ft 483 kts 66°
2026-05-07 20:38 48.57150 23.32839 39049 ft 482 kts 71°
2026-05-07 20:39 48.59506 23.42318 39045 ft 482 kts 70°
2026-05-07 20:39 48.61864 23.51797 39042 ft 482 kts 70°
2026-05-07 20:40 48.64204 23.61296 39040 ft 482 kts 71°
2026-05-07 20:40 48.66486 23.70821 39037 ft 481 kts 72°
2026-05-07 20:41 48.68655 23.80399 39039 ft 481 kts 72°
2026-05-07 20:41 48.70799 23.89984 39038 ft 480 kts 72°
2026-05-07 20:42 48.72957 23.99552 39036 ft 480 kts 72°
2026-05-07 20:42 48.75118 24.09114 39030 ft 479 kts 72°
2026-05-07 20:43 48.77272 24.18674 39030 ft 479 kts 72°
2026-05-07 20:43 48.79406 24.28222 39024 ft 478 kts 72°
2026-05-07 20:44 48.81526 24.37769 39024 ft 477 kts 72°
2026-05-07 20:44 48.83634 24.47316 39024 ft 477 kts 72°
2026-05-07 20:45 48.85722 24.56792 39023 ft 476 kts 72°
2026-05-07 20:45 48.87824 24.66390 39016 ft 475 kts 72°
2026-05-07 20:46 48.90339 24.75610 39011 ft 475 kts 66°
2026-05-07 20:46 48.93051 24.84777 39009 ft 475 kts 66°
2026-05-07 20:47 48.95747 24.93962 39007 ft 475 kts 66°
2026-05-07 20:47 48.98430 25.03158 39002 ft 475 kts 67°
2026-05-07 20:48 49.01104 25.12368 39002 ft 476 kts 66°
2026-05-07 20:48 49.03785 25.21588 38996 ft 476 kts 66°
2026-05-07 20:49 49.06457 25.30816 38997 ft 476 kts 67°
2026-05-07 20:49 49.09114 25.40059 38998 ft 476 kts 67°
2026-05-07 20:50 49.11763 25.49303 38999 ft 475 kts 67°
2026-05-07 20:50 49.14406 25.58552 39001 ft 474 kts 67°
2026-05-07 20:51 49.17044 25.67785 39001 ft 474 kts 67°
2026-05-07 20:51 49.19680 25.77023 39001 ft 474 kts 67°
2026-05-07 20:52 49.22302 25.86260 39002 ft 473 kts 67°
2026-05-07 20:52 49.24911 25.95496 39003 ft 473 kts 67°
2026-05-07 20:53 49.27495 26.04692 39006 ft 473 kts 67°
2026-05-07 20:53 49.30096 26.13934 39007 ft 473 kts 67°
2026-05-07 20:54 49.32704 26.23185 39006 ft 472 kts 67°
2026-05-07 20:54 49.35301 26.32430 39005 ft 472 kts 67°
2026-05-07 20:55 49.37878 26.41697 39008 ft 472 kts 67°
2026-05-07 20:55 49.40435 26.50962 39007 ft 471 kts 68°
2026-05-07 20:56 49.42976 26.60232 39015 ft 471 kts 68°
2026-05-07 20:56 49.45505 26.69513 39014 ft 470 kts 68°
2026-05-07 20:57 49.48020 26.78788 39013 ft 470 kts 68°
2026-05-07 20:57 49.50537 26.88070 39020 ft 470 kts 68°
2026-05-07 20:58 49.53042 26.97346 39018 ft 469 kts 68°
2026-05-07 20:58 49.55531 27.06629 39023 ft 469 kts 68°
2026-05-07 20:59 49.58011 27.15916 39022 ft 468 kts 68°
2026-05-07 20:59 49.60481 27.25205 39018 ft 468 kts 68°
2026-05-07 21:00 49.62947 27.34490 39018 ft 468 kts 68°
2026-05-07 21:00 49.65407 27.43781 39022 ft 468 kts 68°
2026-05-07 21:01 49.67856 27.53089 39020 ft 467 kts 68°
2026-05-07 21:01 49.70297 27.62389 39018 ft 467 kts 68°
2026-05-07 21:02 49.72707 27.71624 39021 ft 467 kts 68°
2026-05-07 21:02 49.75119 27.80939 39030 ft 466 kts 68°
2026-05-07 21:03 49.77530 27.90242 39028 ft 466 kts 68°
2026-05-07 21:03 49.79928 27.99550 39026 ft 465 kts 68°
2026-05-07 21:04 49.82306 28.08860 39033 ft 465 kts 68°
2026-05-07 21:04 49.84670 28.18169 39028 ft 464 kts 68°
2026-05-07 21:05 49.87029 28.27470 39032 ft 464 kts 69°
2026-05-07 21:05 49.89379 28.36770 39036 ft 463 kts 69°
2026-05-07 21:06 49.91727 28.46086 39036 ft 462 kts 69°
2026-05-07 21:06 49.94056 28.55378 39035 ft 462 kts 69°
2026-05-07 21:07 49.96364 28.64614 39033 ft 461 kts 69°
2026-05-07 21:07 49.98301 28.72398 39038 ft 461 kts 69°
2026-05-07 21:08 50.00601 28.81697 39036 ft 461 kts 69°
2026-05-07 21:08 50.02891 28.90984 39035 ft 460 kts 69°
2026-05-07 21:09 50.05172 29.00294 39035 ft 460 kts 69°
2026-05-07 21:09 50.07426 29.09637 37848 ft 466 kts 69°
2026-05-07 21:09 50.08560 29.14376 37100 ft 466 kts 69°
2026-05-07 21:10 50.09689 29.19108 36288 ft 467 kts 69°
2026-05-07 21:10 50.10824 29.23864 35383 ft 471 kts 69°
2026-05-07 21:10 50.11971 29.28677 34442 ft 476 kts 69°
2026-05-07 21:10 50.13126 29.33532 33415 ft 480 kts 69°
2026-05-07 21:11 50.14269 29.38343 32249 ft 477 kts 69°
2026-05-07 21:11 50.15412 29.43174 31066 ft 473 kts 69°
2026-05-07 21:11 50.17634 29.52543 29582 ft 445 kts 68°
2026-05-07 21:12 50.18956 29.56818 28936 ft 431 kts 59°
2026-05-07 21:12 50.20618 29.60665 28312 ft 426 kts 51°
2026-05-07 21:12 50.22492 29.64221 27689 ft 423 kts 50°
2026-05-07 21:12 50.24358 29.67757 27077 ft 420 kts 50°
2026-05-07 21:13 50.26203 29.71276 26472 ft 417 kts 51°
2026-05-07 21:13 50.28033 29.74779 25862 ft 415 kts 51°
2026-05-07 21:13 50.29857 29.78277 25264 ft 414 kts 51°
2026-05-07 21:13 50.31677 29.81759 24674 ft 413 kts 51°
2026-05-07 21:14 50.33493 29.85231 24088 ft 412 kts 51°
2026-05-07 21:14 50.35305 29.88699 23509 ft 411 kts 51°
2026-05-07 21:14 50.37109 29.92162 22905 ft 409 kts 51°
2026-05-07 21:14 50.38900 29.95607 22400 ft 406 kts 51°
2026-05-07 21:15 50.40673 29.99026 21894 ft 403 kts 51°
2026-05-07 21:15 50.42434 30.02424 21424 ft 399 kts 51°
2026-05-07 21:15 50.44176 30.05788 20957 ft 395 kts 51°
2026-05-07 21:15 50.45882 30.09087 20488 ft 392 kts 51°
2026-05-07 21:16 50.47593 30.12396 20011 ft 389 kts 51°
2026-05-07 21:16 50.49294 30.15687 19524 ft 386 kts 51°
2026-05-07 21:16 50.50981 30.18962 19038 ft 384 kts 51°
2026-05-07 21:16 50.52656 30.22217 18537 ft 383 kts 51°
2026-05-07 21:17 50.54326 30.25467 17998 ft 382 kts 52°
2026-05-07 21:17 50.55989 30.28707 17479 ft 379 kts 52°
2026-05-07 21:17 50.57641 30.31929 16967 ft 377 kts 52°
2026-05-07 21:17 50.59284 30.35140 16452 ft 375 kts 52°
2026-05-07 21:18 50.60918 30.38335 15947 ft 374 kts 52°
2026-05-07 21:18 50.62545 30.41517 15436 ft 372 kts 52°
2026-05-07 21:18 50.64165 30.44689 14926 ft 371 kts 52°
2026-05-07 21:18 50.65780 30.47855 14413 ft 370 kts 52°
2026-05-07 21:19 50.67391 30.51016 13905 ft 369 kts 52°
2026-05-07 21:19 50.68996 30.54172 13346 ft 368 kts 52°
2026-05-07 21:19 50.70587 30.57303 12829 ft 364 kts 52°
2026-05-07 21:19 50.72166 30.60417 12292 ft 361 kts 52°
2026-05-07 21:20 50.73708 30.63465 11803 ft 357 kts 52°
2026-05-07 21:20 50.75225 30.66465 11659 ft 342 kts 52°
2026-05-07 21:20 50.76681 30.69349 11533 ft 329 kts 52°
2026-05-07 21:20 50.78083 30.72122 11410 ft 317 kts 52°
2026-05-07 21:21 50.79434 30.74798 11281 ft 306 kts 52°
2026-05-07 21:21 50.80699 30.77419 11165 ft 293 kts 59°
2026-05-07 21:21 50.81493 30.80269 11062 ft 276 kts 76°
2026-05-07 21:21 50.81748 30.83260 10551 ft 277 kts 92°
2026-05-07 21:22 50.81649 30.86296 10045 ft 275 kts 94°
2026-05-07 21:22 50.81346 30.89241 9536 ft 269 kts 114°
2026-05-07 21:22 50.80226 30.91520 9064 ft 261 kts 146°
2026-05-07 21:22 50.78579 30.92529 8610 ft 253 kts 176°
2026-05-07 21:23 50.76843 30.92482 8176 ft 248 kts 183°
2026-05-07 21:23 50.75133 30.92350 7736 ft 244 kts 184°
2026-05-07 21:23 50.73455 30.92214 7338 ft 239 kts 184°
2026-05-07 21:23 50.71816 30.92081 6975 ft 233 kts 184°
2026-05-07 21:24 50.70216 30.91955 6612 ft 228 kts 184°
2026-05-07 21:24 50.68647 30.91833 6231 ft 224 kts 183°
2026-05-07 21:24 50.67110 30.91716 5862 ft 219 kts 184°
2026-05-07 21:24 50.65607 30.91602 5521 ft 214 kts 184°
2026-05-07 21:25 50.64142 30.91493 5186 ft 208 kts 184°
2026-05-07 21:25 50.62711 30.91386 4858 ft 203 kts 185°
2026-05-07 21:25 50.61335 30.91317 4560 ft 197 kts 179°
2026-05-07 21:25 50.60017 30.91472 4406 ft 181 kts 178°
2026-05-07 21:26 50.58828 30.91605 4332 ft 162 kts 179°
2026-05-07 21:26 50.57744 30.91724 4285 ft 150 kts 179°
2026-05-07 21:26 50.56739 30.91832 4216 ft 140 kts 179°
2026-05-07 21:26 50.55775 30.91935 4168 ft 138 kts 180°
2026-05-07 21:27 50.54819 30.92017 4073 ft 139 kts 184°
2026-05-07 21:27 50.53857 30.91957 3871 ft 137 kts 186°
2026-05-07 21:27 50.52910 30.91890 3688 ft 136 kts 186°
2026-05-07 21:27 50.51968 30.91821 3507 ft 135 kts 186°
2026-05-07 21:28 50.51033 30.91753 3334 ft 134 kts 186°
2026-05-07 21:28 50.50105 30.91684 3157 ft 133 kts 186°
2026-05-07 21:28 50.49191 30.91617 2985 ft 130 kts 187°
2026-05-07 21:28 50.48312 30.91553 2818 ft 125 kts 187°
2026-05-07 21:29 50.47451 30.91489 2653 ft 123 kts 187°
2026-05-07 21:29 50.46595 30.91426 2488 ft 123 kts 187°
2026-05-07 21:29 50.45742 30.91362 2324 ft 123 kts 188°
2026-05-07 21:29 50.44892 30.91300 2162 ft 122 kts 188°
2026-05-07 21:30 50.44046 30.91235 2001 ft 121 kts 189°
2026-05-07 21:30 50.43205 30.91172 1860 ft 121 kts 188°
2026-05-07 21:30 50.42365 30.91110 1702 ft 121 kts 188°
2026-05-07 21:30 50.41524 30.91049 1520 ft 121 kts 187°
2026-05-07 21:31 50.40683 30.90989 1348 ft 121 kts 186°
2026-05-07 21:31 50.39844 30.90922 1209 ft 121 kts 186°
2026-05-07 21:31 50.38999 30.90863 1060 ft 122 kts 185°
2026-05-07 21:31 50.38154 30.90802 870 ft 121 kts 185°
2026-05-07 21:32 50.37313 30.90739 714 ft 121 kts 184°
2026-05-07 21:32 50.36475 30.90683 558 ft 122 kts 183°
2026-05-07 21:32 50.35618 30.90615 429 ft 120 kts 183°
2026-05-07 21:32 50.34902 30.90558 423 ft 83 kts 182°
2026-05-07 21:33 50.34513 30.90532 421 ft 34 kts 182°
2026-05-07 21:33 50.34306 30.90514 423 ft 23 kts 188°
2026-05-07 21:33 50.34189 30.90438 421 ft 11 kts 207°
2026-05-07 21:33 50.34125 30.90382 426 ft 11 kts 214°
2026-05-07 21:34 50.34080 30.90335 426 ft 3 kts 212°
2026-05-07 21:34 50.34059 30.90313 426 ft 4 kts 212°
2026-05-07 21:34 50.34057 30.90311 426 ft 0 kts 212°
2026-05-07 21:34 50.34055 30.90310 426 ft 1 kts 212°
2026-05-07 21:35 50.34054 30.90308 426 ft 0 kts 212°
2026-05-07 21:37 50.34052 30.90307 426 ft 1 kts 212°
2026-05-07 21:37 50.34026 30.90281 422 ft 6 kts 212°
2026-05-07 21:37 50.33977 30.90232 421 ft 11 kts 212°
2026-05-07 21:37 50.33900 30.90166 427 ft 14 kts 197°
2026-05-07 21:38 50.33788 30.90155 426 ft 17 kts 181°
2026-05-07 21:38 50.33713 30.90055 425 ft 15 kts 226°
2026-05-07 21:38 50.33616 30.90018 428 ft 15 kts 210°
2026-05-07 21:38 50.33603 30.89866 427 ft 15 kts 272°
2026-05-07 21:39 50.33609 30.89685 427 ft 18 kts 272°
2026-05-07 21:39 50.33592 30.89481 426 ft 20 kts 271°
2026-05-07 21:39 50.33601 30.89254 420 ft 22 kts 272°
2026-05-07 21:39 50.33608 30.89002 424 ft 24 kts 272°
2026-05-07 21:40 50.33616 30.88756 423 ft 20 kts 273°
2026-05-07 21:40 50.33622 30.88555 419 ft 19 kts 272°
2026-05-07 21:40 50.33624 30.88493 419 ft 4 kts 273°
2026-05-07 21:40 50.33621 30.88423 422 ft 9 kts 249°
2026-05-07 21:41 50.33554 30.88402 417 ft 13 kts 145°
2026-05-07 21:41 50.33538 30.88555 414 ft 17 kts 92°
2026-05-07 21:41 50.33532 30.88758 422 ft 20 kts 92°
2026-05-07 21:41 50.33525 30.89000 418 ft 24 kts 92°
2026-05-07 21:42 50.33517 30.89262 425 ft 24 kts 92°
2026-05-07 21:42 50.33510 30.89528 420 ft 25 kts 93°
2026-05-07 21:42 50.33501 30.89798 427 ft 25 kts 92°
2026-05-07 21:42 50.33494 30.90045 428 ft 17 kts 89°
2026-05-07 21:43 50.33591 30.90138 417 ft 20 kts
2026-05-07 21:43 50.33742 30.90151 427 ft 24 kts
2026-05-07 21:43 50.33918 30.90162 423 ft 27 kts
2026-05-07 21:43 50.34118 30.90176 423 ft 30 kts
2026-05-07 21:44 50.34316 30.90192 422 ft 29 kts
2026-05-07 21:44 50.34518 30.90207 424 ft 30 kts
2026-05-07 21:44 50.34729 30.90223 419 ft 31 kts
2026-05-07 21:44 50.34946 30.90237 422 ft 32 kts
2026-05-07 21:45 50.35157 30.90254 416 ft 30 kts
2026-05-07 21:45 50.35370 30.90269 418 ft 30 kts
2026-05-07 21:45 50.35583 30.90283 418 ft 31 kts
2026-05-07 21:45 50.35803 30.90298 420 ft 32 kts
2026-05-07 21:46 50.35968 30.90309 415 ft 16 kts
2026-05-07 21:46 50.36065 30.90381 412 ft 16 kts 62°
2026-05-07 21:46 50.36062 30.90546 419 ft 16 kts 121°
2026-05-07 21:46 50.36037 30.90683 421 ft 14 kts 80°
2026-05-07 21:47 50.36036 30.90839 420 ft 15 kts 92°
2026-05-07 21:47 50.36031 30.91012 419 ft 17 kts 92°
2026-05-07 21:47 50.36063 30.91168 413 ft 15 kts 22°
2026-05-07 21:47 50.36159 30.91179 418 ft 14 kts
2026-05-07 21:48 50.36263 30.91187 420 ft 16 kts
2026-05-07 21:48 50.36387 30.91191 420 ft 19 kts 359°
2026-05-07 21:48 50.36527 30.91163 417 ft 21 kts 327°
2026-05-07 21:48 50.36557 30.91072 420 ft 0 kts 266°